Content
SEND FEEDBACK

Daily
Averages
Monthly
Summary
United States of America

LOWELL, MICHIGAN


Home > North America > United States > Michigan
Elevation: 660 feet     Latitude: 42 58N     Longitude: 085 21W

WEATHER
 
SELECT A DAY
Number of Records: 212,228;   Date Range: 1/1/95 - 10/21/14
 
SHARE

PRINT THIS DATA

[ ← Previous Day ]
WEATHER ALMANAC - JANUARY 23, 2013
[ Next Day → ]
[ °C ]   °F
Weather ElementAverageHighLow
Temperature13 °F17.6 °F (2:32 pm)3.9 °F (1:53 am)
Dewpoint7.8 °F12.9 °F (3:53 pm)-0.9 °F (1:53 am)
Humidity79.8 %84 % (1:53 pm)73 % (6:53 am)
Barometer30.16 in30.31 in (1:53 am)30.03 in (7:10 pm)
Wind Speed7.3 mph11.5 mph (10:34 pm)
Weather ElementAverage
Visibility2.9 mi
Wind DirectionSSW (212.4 °)

Weather ElementTotal
Precipitation0.24 in
Heating Degree Days54.3 (Base 65)
Averaged from 37 records on January 23, 2013
WEATHER CONDITIONS BREAKOUT
WIND DIRECTION BREAKOUT
WEATHER BY HOUR - JANUARY 23, 2013
[ °C ]   °F
Local TimeTemperatureDewpointHumidityBarometerVisibilityWind DirectionWind SpeedGust SpeedPrecipitationEventsConditions
1:53 AM3.9 °F-0.9 °F80 %30.31 in10.0 miSouth (190°)4.6 mphOvercast
2:53 AM5.0 °F0.0 °F80 %30.31 in10.0 miSouth (170°)4.6 mphOvercast
3:53 AM6.1 °F1.0 °F80 %30.31 in10.0 miSSW (200°)5.8 mphOvercast
4:53 AM6.1 °F1.0 °F80 %30.29 in10.0 miSouth (180°)6.9 mphOvercast
5:53 AM6.1 °F1.0 °F80 %30.27 in8.0 miSSE (160°)5.8 mph0.00 inSnowLight Snow
6:53 AM7.0 °F0.0 °F73 %30.27 in8.0 miSouth (180°)8.1 mph0.00 inSnowLight Snow
7:19 AM6.8 °F1.4 °F79 %30.22 in3.0 miSouth (190°)8.1 mph0.00 inSnowLight Snow
7:53 AM6.1 °F1.0 °F80 %30.26 in5.0 miSouth (180°)5.8 mph0.00 inSnowLight Snow
8:38 AM6.8 °F1.4 °F79 %30.19 in1.8 miSouth (170°)5.8 mph0.00 inSnowLight Snow
8:53 AM6.1 °F1.9 °F83 %30.25 in1.8 miSouth (180°)5.8 mph0.00 inSnowLight Snow
9:14 AM6.8 °F1.4 °F79 %30.19 in2.5 miSouth (190°)6.9 mph0.00 inSnowLight Snow
9:53 AM9.0 °F3.9 °F80 %30.25 in1.2 miSouth (190°)8.1 mph0.00 inSnowLight Snow
10:53 AM10.9 °F6.1 °F81 %30.24 in1.5 miSouth (190°)6.9 mph0.00 inSnowLight Snow
11:53 AM15.1 °F9.0 °F77 %30.22 in1.0 miSW (220°)9.2 mph0.01 inSnowLight Snow
12:08 PM15.8 °F8.6 °F73 %30.16 in1.2 miSW (230°)10.4 mph0.00 inSnowLight Snow
12:31 PM15.8 °F10.4 °F79 %30.14 in1.5 miSSW (210°)10.4 mph0.01 inSnowLight Snow
12:53 PM16.0 °F10.0 °F77 %30.18 in1.0 miSW (230°)10.4 mph0.01 inSnowLight Snow
1:13 PM15.8 °F10.4 °F79 %30.12 in0.8 miSSW (200°)8.1 mph0.00 inSnowLight Snow
1:53 PM16.0 °F12.0 °F84 %30.15 in0.5 miSSW (200°)8.1 mph0.01 inFog-SnowSnow
2:32 PM17.6 °F12.2 °F79 %30.08 in1.0 miSSW (200°)10.4 mph0.01 inSnowLight Snow
2:45 PM17.6 °F12.2 °F79 %30.07 in1.2 miSSW (200°)8.1 mph0.01 inSnowLight Snow
2:53 PM17.1 °F12.0 °F81 %30.12 in1.0 miSSW (210°)8.1 mph0.01 inSnowLight Snow
3:53 PM17.1 °F12.9 °F84 %30.11 in1.0 miSSW (200°)6.9 mph0.00 inSnowLight Snow
4:26 PM17.6 °F12.2 °F79 %30.04 in0.5 miSSW (200°)8.1 mph0.01 inFog-SnowSnow
4:53 PM17.1 °F12.9 °F84 %30.09 in0.5 miSSW (200°)5.8 mph0.02 inFog-SnowLight Snow
5:53 PM17.1 °F12.9 °F84 %30.09 in1.0 miSSW (200°)5.8 mph0.01 inSnowLight Snow
6:25 PM17.6 °F12.2 °F79 %30.04 in0.5 miSSW (210°)5.8 mph0.01 inSnowLight Snow
6:53 PM17.1 °F12.9 °F84 %30.09 in0.8 miSSW (200°)5.8 mph0.02 inSnowLight Snow
7:10 PM17.6 °F12.2 °F79 %30.03 in1.0 miSouth (190°)3.5 mph0.01 inSnowLight Snow
7:18 PM17.6 °F12.2 °F79 %30.03 in0.8 miSouth (190°)4.6 mph0.01 inSnowLight Snow
7:53 PM17.1 °F12.9 °F84 %30.09 in0.8 miCalm0.03 inSnowLight Snow
8:44 PM17.6 °F12.2 °F79 %30.06 in0.8 miNNW (330°)5.8 mph0.02 inSnowLight Snow
8:53 PM16.0 °F12.0 °F84 %30.12 in0.8 miNorth (350°)8.1 mph0.02 inSnowLight Snow
9:53 PM16.0 °F10.9 °F81 %30.15 in1.0 miNNW (340°)10.4 mph0.01 inSnowLight Snow
10:34 PM15.8 °F8.6 °F73 %30.12 in3.0 miNW (320°)11.5 mph0.00 inSnowLight Snow
10:53 PM14.0 °F9.0 °F80 %30.18 in3.0 miNNW (330°)11.5 mph0.00 inSnowLight Snow
11:53 PM10.9 °F5.0 °F77 %30.21 in10.0 miNNW (330°)9.2 mph0.00 inScattered Clouds
Hourly data recorded from KGRR, located miles away from Lowell, Michigan







STORIES FROM OUR PARTNERS